Flag for U.S.A. Weather past 2 weeks in Victorville, California, U.S.A.

Now
81 °F

Clear.


Feels Like: 80 °F
Forecast: 65 / 97 °F
Wind: No wind

Location: George Air Force Base / Victorvi

Current Time: Sep 16, 2014 at 1:22:16 AM

Latest Report: Sep 16, 2014 at 12:55 AM


Visibility: 10 mi

Pressure: 29.98 "Hg

Humidity: 30%

Dew point: 46 °F

Location of VictorvilleLocation

Historic Weather in Victorville — Graph

°F

Victorville temperature yesterday

Maximum temperature yesterday: 100 °F (at 3:15 PM)
Minimum temperature yesterday: 70 °F (at 5:35 AM)
Average temperature yesterday: 86 °F

Past Weeks' High & Low Weather Summary

 TemperatureHumidityPressure
High100 °F (Sep 15, 3:15 PM)83% (Sep 8, 1:15 PM)30.05 "Hg (Sep 8, 1:15 PM)
Low59 °F (Sep 5, 5:35 AM)3% (Sep 1, 2:35 PM)29.74 "Hg (Sep 3, 4:15 PM)
Average80 °F30%29.92 "Hg
* Reported Sep 1 12:15 AM — Sep 16 12:15 AM, Victorville, Weather by CustomWeather, © 2014

Note: Actual official high and low records may vary slightly from our data, if they occured in-between our weather recording intervals... More about our weather records

Advertising

Victorville weather history for previous 24 hours

 ConditionsComfort  
Time TempWeatherWind HumidityBarometerVisibility
12:15 AM
Sep 16
81 °FClear.No wind30%29.98 "Hg10 mi
11:55 PM
Sep 15
81 °FClear.5 mph30%29.98 "Hg10 mi
11:35 PM81 °FClear.3 mph30%29.98 "Hg10 mi
11:15 PM82 °FClear.3 mph28%29.98 "Hg10 mi
10:55 PM82 °FClear.No wind28%29.98 "Hg10 mi
10:35 PM84 °FClear.6 mph27%29.97 "Hg10 mi
10:15 PM86 °FClear.8 mph25%29.97 "Hg10 mi
9:55 PM88 °FClear.9 mph24%29.96 "Hg10 mi
9:35 PM88 °FClear.6 mph24%29.96 "Hg10 mi
9:15 PM88 °FClear.12 mph24%29.95 "Hg10 mi
8:55 PM90 °FClear.13 mph22%29.94 "Hg10 mi
8:15 PM91 °FClear.12 mph21%29.93 "Hg10 mi
7:55 PM91 °FSunny.No wind16%29.92 "Hg10 mi
7:15 PM93 °FSunny.6 mph15%29.90 "Hg10 mi
6:55 PM95 °FSunny.5 mph15%29.90 "Hg10 mi
6:15 PM97 °FSunny.3 mph14%29.90 "Hg10 mi
5:55 PM97 °FSunny.5 mph14%29.89 "Hg10 mi
5:35 PM97 °FSunny.7 mph14%29.89 "Hg10 mi
5:15 PM99 °FScattered clouds.12 mph14%29.89 "Hg10 mi
4:55 PM100 °FSunny.10 mph13%29.89 "Hg10 mi
4:35 PM99 °FSunny.No wind13%29.90 "Hg10 mi
4:15 PM99 °FSunny.7 mph14%29.90 "Hg10 mi
3:55 PM100 °FSunny.3 mph13%29.90 "Hg10 mi
3:35 PM99 °FSunny.7 mph14%29.91 "Hg10 mi
3:15 PM100 °FSunny.7 mph14%29.91 "Hg10 mi
2:55 PM99 °FSunny.3 mph14%29.92 "Hg10 mi
2:15 PM99 °FScattered clouds.6 mph14%29.93 "Hg10 mi
1:55 PM99 °FScattered clouds.7 mph14%29.94 "Hg10 mi
1:35 PM99 °FSunny.9 mph15%29.95 "Hg10 mi
1:15 PM99 °FSunny.12 mph15%29.95 "Hg10 mi
12:55 PM97 °FSunny.3 mph16%29.96 "Hg10 mi
12:35 PM97 °FSunny.5 mph16%29.97 "Hg10 mi
12:15 PM97 °FScattered clouds.3 mph16%29.98 "Hg10 mi
11:55 AM95 °FScattered clouds.No wind16%29.98 "Hg10 mi
11:35 AM95 °FScattered clouds.5 mph16%29.98 "Hg10 mi
11:15 AM93 °FSunny.No wind17%29.98 "Hg10 mi
10:55 AM93 °FSunny.No wind17%29.99 "Hg10 mi
10:15 AM90 °FScattered clouds.5 mph22%29.99 "Hg10 mi
9:55 AM88 °FSunny.6 mph24%29.99 "Hg10 mi
9:15 AM84 °FSunny.6 mph27%29.99 "Hg10 mi
8:55 AM84 °FSunny.7 mph27%29.99 "Hg10 mi
8:35 AM81 °FSunny.6 mph28%29.99 "Hg10 mi
8:15 AM79 °FSunny.6 mph30%29.99 "Hg10 mi
7:55 AM79 °FSunny.6 mph30%29.99 "Hg10 mi
7:15 AM73 °FClear.6 mph36%29.99 "Hg10 mi
6:55 AM72 °FClear.7 mph38%29.98 "Hg10 mi
6:35 AM72 °FClear.7 mph38%29.98 "Hg10 mi
6:15 AM72 °FClear.7 mph38%29.97 "Hg10 mi
5:55 AM72 °FClear.6 mph38%29.97 "Hg10 mi
5:35 AM70 °FClear.7 mph43%29.96 "Hg10 mi
5:15 AM72 °FClear.6 mph38%29.96 "Hg10 mi
4:55 AM72 °FClear.6 mph41%29.95 "Hg10 mi
4:35 AM72 °FClear.5 mph41%29.95 "Hg10 mi
4:15 AM72 °FClear.5 mph38%29.95 "Hg10 mi
3:55 AM73 °FClear.7 mph36%29.95 "Hg10 mi
3:35 AM73 °FClear.6 mph36%29.95 "Hg10 mi
3:15 AM73 °FClear.3 mph36%29.95 "Hg10 mi
2:55 AM73 °FClear.6 mph36%29.95 "Hg10 mi
2:35 AM73 °FClear.No wind36%29.95 "Hg10 mi
2:15 AM73 °FClear.3 mph36%29.95 "Hg10 mi
1:55 AM73 °FClear.6 mph36%29.95 "Hg10 mi
1:15 AM77 °FClear.No wind32%29.95 "Hg10 mi
Weather by CustomWeather, © 2014

See weather overviewHow to use our weather pages